Estación de El Carmen

Ultimos registro cada 15 minutos 50
Estación Fecha / Hora Temperatura Humedad Lluvia Velocidad Dirección Radiación Presion
50 El Carmen 10-05-2026 12:15 14,1 75,8 0 2 138 495,6 972,4
49 El Carmen 10-05-2026 12:00 13,3 77,9 0 2 136 484,4 972,4
48 El Carmen 10-05-2026 11:45 13,3 80,5 0 1,5 129 471,9 972,7
47 El Carmen 10-05-2026 11:30 12 81,2 0 2,5 129 458,1 972,7
46 El Carmen 10-05-2026 11:15 11,5 82,1 0 2,5 131 440,6 972,8
45 El Carmen 10-05-2026 11:00 11,1 84,3 0 2,5 136 420,6 972,9
44 El Carmen 10-05-2026 10:45 10,1 85,5 0 2 129 398,1 973,1
43 El Carmen 10-05-2026 10:30 9,5 87 0 2 131 371,9 972,9
42 El Carmen 10-05-2026 10:15 9 88,3 0 2 133 344,4 973,2
41 El Carmen 10-05-2026 10:00 8,4 89,1 0 2,5 135 314,4 973,4
40 El Carmen 10-05-2026 09:45 8,2 91 0 2 133 280,6 973,5
39 El Carmen 10-05-2026 09:30 7,5 91,9 0 2 133 248,1 973,4
38 El Carmen 10-05-2026 09:15 7 93,6 0 1,5 135 123,1 973,3
37 El Carmen 10-05-2026 09:00 6,2 95,5 0 1,5 128 91,9 973,3
36 El Carmen 10-05-2026 08:45 5,4 96 0 0,5 121 125,6 973,2
35 El Carmen 10-05-2026 08:30 4,7 96,1 0 0,5 111 20,6 973
34 El Carmen 10-05-2026 08:15 4,3 96,2 0 0,5 119 74,4 972,9
33 El Carmen 10-05-2026 08:00 3,7 96,2 0 0,5 126 16,9 973,3
32 El Carmen 10-05-2026 07:45 3,6 96,2 0 0,5 128 5,6 973,4
31 El Carmen 10-05-2026 07:30 3,4 96 0 0,5 114 1,9 973,3
30 El Carmen 10-05-2026 07:15 3,5 95,7 0 0 112 0,6 973,3
29 El Carmen 10-05-2026 07:00 3,7 95,6 0 0,5 119 0,6 973,3
28 El Carmen 10-05-2026 06:45 4,2 95,6 0 1 128 0,6 973,1
27 El Carmen 10-05-2026 06:30 4,2 95,6 0 1 129 0,6 973
26 El Carmen 10-05-2026 06:15 4 95,7 0 0,5 126 0,6 972,8
25 El Carmen 10-05-2026 06:00 4,1 95,5 0 0,5 118 0,6 972,5
24 El Carmen 10-05-2026 05:45 4,2 95,4 0 0,5 122 0,6 972,5
23 El Carmen 10-05-2026 05:30 4,3 95,3 0 1 128 0,6 972,6
22 El Carmen 10-05-2026 05:15 4,3 95,1 0 0,5 138 0,6 972,7
21 El Carmen 10-05-2026 05:00 4,5 95 0 0,5 126 0,6 972,8
20 El Carmen 10-05-2026 04:45 4,4 94,7 0 0 128 0,6 972,6
19 El Carmen 10-05-2026 04:30 4,3 94,2 0 0 129 0,6 972,6
18 El Carmen 10-05-2026 04:15 4,6 93,9 0 0,5 126 0,6 972,9
17 El Carmen 10-05-2026 04:00 4,9 93,7 0 1 128 0,6 973
16 El Carmen 10-05-2026 03:45 5,2 93,3 0 0,5 125 0,6 973
15 El Carmen 10-05-2026 03:30 5,2 93 0 0 124 0,6 973,2
14 El Carmen 10-05-2026 03:15 5,4 92,8 0 0 114 0,6 973,4
13 El Carmen 10-05-2026 03:00 5,5 92,6 0 0,5 117 0,6 973,3
12 El Carmen 10-05-2026 02:45 6 92,1 0 0,5 122 0,6 973,6
11 El Carmen 10-05-2026 02:30 5,9 92,1 0 0,5 117 0,6 973,8
10 El Carmen 10-05-2026 02:15 5,6 91,7 0 0,5 115 0,6 973,8
9 El Carmen 10-05-2026 02:00 6,1 91,4 0 0 135 0,6 973,7
8 El Carmen 10-05-2026 01:45 6,3 90,8 0 0,5 128 0,6 973,8
7 El Carmen 10-05-2026 01:30 5,9 91,4 0 0 122 0,6 973,8
6 El Carmen 10-05-2026 01:15 5,6 91,8 0 0 111 0,6 973,7
5 El Carmen 10-05-2026 01:00 5,7 91,1 0 0 110 0,6 974
4 El Carmen 10-05-2026 00:45 6,1 90,1 0 0 104 0,6 974,1
3 El Carmen 10-05-2026 00:30 6,7 89,1 0 0 107 0,6 974,1
2 El Carmen 10-05-2026 00:15 7,4 87,4 0 0,5 119 0,6 974,3
1 El Carmen 10-05-2026 00:00 7,9 86,8 0 0,5 135 0,6 974,4